• In Austria
  • List of Countries
  • For 7 days
  • Water Temperature
  • Satellite Maps
  • Weather Map
  • News
  • Weather Widgets
  • user-avatar
    Login

    Hourly Weather Pleven

    Today, 16 August, Thursday

    Time Temperature Precipitation Wind Pressure Humidity
    00:00 +23°C° 0 mm 1 mps 745 mmHg 54%
    01:00 +22°C° 0 mm 1 mps 745 mmHg 55%
    02:00 +22°C° 0 mm 1 mps 745 mmHg 57%
    03:00 +21°C° 0 mm 1 mps 745 mmHg 58%
    04:00 +21°C° 0 mm 1 mps 745 mmHg 59%
    05:00 +20°C° 0 mm 1 mps 744 mmHg 61%
    06:00 +22°C° 0 mm 1 mps 745 mmHg 57%
    07:00 +24°C° 0 mm 1 mps 745 mmHg 54%
    08:00 +25°C° 0 mm 1 mps 745 mmHg 50%
    09:00 +27°C° 0 mm 1 mps 745 mmHg 45%
    10:00 +29°C° 0 mm 2 mps 745 mmHg 40%
    11:00 +31°C° 0 mm 2 mps 745 mmHg 35%
    12:00 +31°C° 0 mm 2 mps 744 mmHg 33%
    13:00 +33°C° 0 mm 3 mps 744 mmHg 31%
    14:00 +34°C° 0 mm 3 mps 744 mmHg 29%
    15:00 +34°C° 0 mm 3 mps 744 mmHg 29%
    16:00 +34°C° 0 mm 3 mps 743 mmHg 30%
    17:00 +34°C° 0 mm 2 mps 743 mmHg 31%
    18:00 +31°C° 0 mm 2 mps 743 mmHg 35%
    19:00 +29°C° 0 mm 1 mps 743 mmHg 39%
    20:00 +27°C° 0 mm 1 mps 743 mmHg 43%
    21:00 +26°C° 0 mm 1 mps 744 mmHg 45%
    22:00 +26°C° 0 mm 1 mps 744 mmHg 47%
    23:00 +25°C° 0 mm 1 mps 744 mmHg 49%

    Tomorrow, 17 August, Friday

    Time Temperature Precipitation Wind Pressure Humidity
    00:00 +25°C° 0.1 mm 1 mps 744 mmHg 51%
    01:00 +24°C° 0.1 mm 1 mps 744 mmHg 54%
    02:00 +24°C° 0.1 mm 2 mps 744 mmHg 56%
    03:00 +23°C° 0 mm 2 mps 744 mmHg 58%
    04:00 +23°C° 0 mm 1 mps 744 mmHg 59%
    05:00 +22°C° 0 mm 1 mps 744 mmHg 61%
    06:00 +23°C° 0 mm 1 mps 744 mmHg 57%
    07:00 +25°C° 0 mm 1 mps 744 mmHg 54%
    08:00 +26°C° 0 mm 1 mps 745 mmHg 50%
    09:00 +28°C° 0 mm 1 mps 745 mmHg 45%
    10:00 +30°C° 0 mm 1 mps 745 mmHg 39%
    11:00 +32°C° 0 mm 2 mps 745 mmHg 34%
    12:00 +32°C° 0 mm 2 mps 744 mmHg 32%
    13:00 +34°C° 0 mm 2 mps 744 mmHg 30%
    14:00 +35°C° 0 mm 3 mps 743 mmHg 27%
    15:00 +35°C° 0 mm 2 mps 743 mmHg 28%
    16:00 +35°C° 0 mm 2 mps 743 mmHg 28%
    17:00 +35°C° 0 mm 2 mps 743 mmHg 29%
    18:00 +31°C° 0 mm 2 mps 743 mmHg 33%
    19:00 +29°C° 0 mm 1 mps 743 mmHg 38%
    20:00 +27°C° 0 mm 1 mps 743 mmHg 42%
    21:00 +26°C° 0 mm 1 mps 744 mmHg 43%
    22:00 +26°C° 0 mm 1 mps 744 mmHg 44%
    23:00 +25°C° 0 mm 1 mps 744 mmHg 45%

    Day after tomorrow, 18 August, Saturday

    Time Temperature Precipitation Wind Pressure Humidity
    00:00 +24°C° 0 mm 1 mps 744 mmHg 46%
    01:00 +24°C° 0 mm 1 mps 744 mmHg 48%
    02:00 +23°C° 0 mm 1 mps 744 mmHg 49%
    03:00 +23°C° 0 mm 1 mps 744 mmHg 50%
    04:00 +23°C° 0 mm 1 mps 744 mmHg 51%
    05:00 +22°C° 0 mm 1 mps 744 mmHg 52%
    06:00 +24°C° 0 mm 1 mps 745 mmHg 50%
    07:00 +25°C° 0 mm 1 mps 745 mmHg 47%
    08:00 +27°C° 0 mm 1 mps 745 mmHg 45%
    09:00 +29°C° 0 mm 1 mps 745 mmHg 41%
    10:00 +31°C° 0 mm 2 mps 745 mmHg 38%
    11:00 +33°C° 0 mm 3 mps 745 mmHg 34%
    12:00 +34°C° 0 mm 3 mps 745 mmHg 32%
    13:00 +35°C° 0 mm 3 mps 745 mmHg 31%
    14:00 +35°C° 0 mm 3 mps 744 mmHg 29%
    15:00 +35°C° 0 mm 3 mps 744 mmHg 29%
    16:00 +35°C° 0 mm 3 mps 744 mmHg 30%
    17:00 +34°C° 0 mm 3 mps 744 mmHg 30%
    18:00 +31°C° 0 mm 2 mps 744 mmHg 34%
    19:00 +29°C° 0 mm 2 mps 745 mmHg 38%
    20:00 +27°C° 0 mm 2 mps 745 mmHg 42%
    21:00 +27°C° 0 mm 1 mps 745 mmHg 43%
    22:00 +26°C° 0 mm 1 mps 745 mmHg 44%
    23:00 +25°C° 0 mm 1 mps 745 mmHg 46%

    19 August, Sunday

    Time Temperature Precipitation Wind Pressure Humidity
    00:00 +25°C° 0 mm 1 mps 745 mmHg 47%
    01:00 +24°C° 0 mm 1 mps 746 mmHg 48%
    02:00 +24°C° 0 mm 1 mps 746 mmHg 49%
    03:00 +23°C° 0 mm 1 mps 746 mmHg 50%
    04:00 +23°C° 0 mm 1 mps 746 mmHg 52%
    05:00 +22°C° 0 mm 1 mps 746 mmHg 54%
    06:00 +24°C° 0 mm 1 mps 746 mmHg 51%
    07:00 +25°C° 0 mm 1 mps 746 mmHg 48%
    08:00 +27°C° 0 mm 1 mps 746 mmHg 44%
    09:00 +29°C° 0 mm 1 mps 746 mmHg 40%
    10:00 +31°C° 0 mm 2 mps 746 mmHg 35%
    11:00 +32°C° 0 mm 2 mps 746 mmHg 31%
    12:00 +34°C° 0 mm 2 mps 746 mmHg 29%
    13:00 +35°C° 0 mm 3 mps 745 mmHg 27%
    14:00 +36°C° 0 mm 3 mps 745 mmHg 25%
    15:00 +35°C° 0 mm 3 mps 745 mmHg 26%
    16:00 +35°C° 0 mm 3 mps 745 mmHg 26%
    17:00 +35°C° 0 mm 3 mps 745 mmHg 27%
    18:00 +32°C° 0 mm 2 mps 745 mmHg 31%
    19:00 +30°C° 0 mm 2 mps 745 mmHg 35%
    20:00 +27°C° 0 mm 1 mps 745 mmHg 39%
    21:00 +27°C° 0 mm 1 mps 745 mmHg 40%
    22:00 +26°C° 0 mm 1 mps 746 mmHg 42%
    23:00 +25°C° 0 mm 1 mps 746 mmHg 43%

    20 August, Monday

    Time Temperature Precipitation Wind Pressure Humidity
    00:00 +25°C° 0 mm 1 mps 746 mmHg 44%
    01:00 +24°C° 0 mm 1 mps 746 mmHg 46%
    02:00 +23°C° 0 mm 1 mps 745 mmHg 47%
    03:00 +23°C° 0 mm 1 mps 745 mmHg 48%
    04:00 +23°C° 0 mm 1 mps 746 mmHg 50%
    05:00 +22°C° 0 mm 1 mps 746 mmHg 51%
    06:00 +24°C° 0 mm 1 mps 746 mmHg 48%
    07:00 +25°C° 0 mm 1 mps 746 mmHg 45%
    08:00 +27°C° 0 mm 1 mps 746 mmHg 42%
    09:00 +28°C° 0 mm 1 mps 746 mmHg 40%
    10:00 +29°C° 0 mm 2 mps 746 mmHg 37%
    11:00 +31°C° 0 mm 2 mps 746 mmHg 35%
    12:00 +32°C° 0 mm 2 mps 746 mmHg 33%
    13:00 +34°C° 0 mm 2 mps 746 mmHg 31%
    14:00 +35°C° 0 mm 2 mps 745 mmHg 29%
    15:00 +35°C° 0 mm 2 mps 745 mmHg 29%
    16:00 +34°C° 0 mm 3 mps 745 mmHg 30%
    17:00 +34°C° 0 mm 3 mps 745 mmHg 30%
    18:00 +31°C° 0 mm 2 mps 745 mmHg 35%
    19:00 +29°C° 0 mm 2 mps 745 mmHg 40%
    20:00 +27°C° 0 mm 2 mps 746 mmHg 46%
    21:00 +26°C° 0.1 mm 2 mps 746 mmHg 48%
    22:00 +25°C° 0.1 mm 1 mps 746 mmHg 50%
    23:00 +24°C° 0.1 mm 1 mps 746 mmHg 53%

    21 August, Tuesday

    Time Temperature Precipitation Wind Pressure Humidity
    00:00 +24°C° 0.2 mm 1 mps 746 mmHg 55%
    01:00 +23°C° 0.2 mm 1 mps 746 mmHg 56%
    02:00 +23°C° 0.2 mm 1 mps 746 mmHg 58%
    03:00 +22°C° 0 mm 1 mps 746 mmHg 60%
    04:00 +22°C° 0 mm 1 mps 746 mmHg 61%
    05:00 +22°C° 0 mm 1 mps 747 mmHg 63%
    06:00 +23°C° 0 mm 1 mps 747 mmHg 59%
    07:00 +25°C° 0 mm 1 mps 747 mmHg 55%
    08:00 +26°C° 0 mm 1 mps 747 mmHg 51%
    09:00 +28°C° 0 mm 1 mps 747 mmHg 46%
    10:00 +30°C° 0 mm 2 mps 747 mmHg 42%
    11:00 +32°C° 0 mm 2 mps 747 mmHg 37%
    12:00 +32°C° 0 mm 2 mps 747 mmHg 35%
    13:00 +34°C° 0 mm 3 mps 746 mmHg 32%
    14:00 +35°C° 0 mm 3 mps 746 mmHg 30%
    15:00 +35°C° 0 mm 3 mps 746 mmHg 29%
    16:00 +35°C° 0 mm 3 mps 745 mmHg 29%
    17:00 +34°C° 0 mm 3 mps 745 mmHg 28%
    18:00 +31°C° 0 mm 3 mps 745 mmHg 31%
    19:00 +29°C° 0 mm 2 mps 745 mmHg 34%
    20:00 +26°C° 0 mm 2 mps 745 mmHg 37%
    21:00 +26°C° 0 mm 2 mps 745 mmHg 38%
    22:00 +25°C° 0 mm 2 mps 746 mmHg 39%
    23:00 +24°C° 0 mm 2 mps 746 mmHg 39%
    Show more